Location: Cruquius
(52.3348°N, 4.6319°E)
Time: 14:02:22
(UTC+00:00)

EO 1 Del DPAF - Pass Details

Date: 12 May 2021
Orbit: 505 x 510 km, 98.0° (Epoch: 19 June)

Event Time Altitude Azimuth Distance (km) Brightness Sun altitude
Rises 23:48:02 0° 19° (NNE) 2,632 8.2 -19.2°
Reaches altitude 10° 23:50:13 10° 26° (NNE) 1,739 6.9 -19.2°
Maximum altitude 23:53:49 45° 100° (E) 701 3.7 -19.2°
Enters shadow 23:54:26 41° 130° (SE) 749 3.7 -19.2°
